SB KEPS @ AMSAT $ORB13302.O Orbital Elements 13302.OSCAR
HR AMSAT ORBITAL ELEMENTS FOR OSCAR SATELLITES FROM WA5QGD FORT WORTH,TX October 29, 2013 BID: ORB13302.O TO ALL RADIO AMATEURS BT
Satellite: AO-07 Catalog number: 07530 Epoch time: 13302.18085772 Element set: 810 Inclination: 101.4461 deg RA of node: 286.8886 deg Eccentricity: 0.0012157 Arg of perigee: 027.8073 deg Mean anomaly: 033.6522 deg Mean motion: 12.53599430 rev/day Decay rate: -3.9e-07 rev/day^2 Epoch rev: 78257 Checksum: 299
Satellite: FO-29 Catalog number: 24278 Epoch time: 13302.13503794 Element set: 230 Inclination: 098.5377 deg RA of node: 342.6781 deg Eccentricity: 0.0350873 Arg of perigee: 176.8391 deg Mean anomaly: 248.8487 deg Mean motion: 13.53007697 rev/day Decay rate: 6.6e-07 rev/day^2 Epoch rev: 84942 Checksum: 343
Satellite: SO-33 Catalog number: 25509 Epoch time: 13301.68669806 Element set: 614 Inclination: 031.4356 deg RA of node: 031.7101 deg Eccentricity: 0.0351063 Arg of perigee: 246.7561 deg Mean anomaly: 239.6314 deg Mean motion: 14.29190600 rev/day Decay rate: 8.93e-06 rev/day^2 Epoch rev: 78400 Checksum: 288
Satellite: RS-22 Catalog number: 27939 Epoch time: 13302.63918213 Element set: 899 Inclination: 097.7983 deg RA of node: 123.5006 deg Eccentricity: 0.0014124 Arg of perigee: 117.5039 deg Mean anomaly: 242.7597 deg Mean motion: 14.64631177 rev/day Decay rate: 1.016e-05 rev/day^2 Epoch rev: 53897 Checksum: 325
Satellite: VO-52 Catalog number: 28650 Epoch time: 13302.51678190 Element set: 565 Inclination: 097.5639 deg RA of node: 314.2254 deg Eccentricity: 0.0025673 Arg of perigee: 194.8619 deg Mean anomaly: 325.4162 deg Mean motion: 14.84246416 rev/day Decay rate: 2.919e-05 rev/day^2 Epoch rev: 45900 Checksum: 322
Satellite: HO-68 Catalog number: 36122 Epoch time: 13302.65812279 Element set: 15 Inclination: 100.2875 deg RA of node: 356.2078 deg Eccentricity: 0.0007761 Arg of perigee: 046.8664 deg Mean anomaly: 313.3096 deg Mean motion: 13.16308030 rev/day Decay rate: -4.4e-07 rev/day^2 Epoch rev: 18610 Checksum: 278
/EX SB KEPS @ AMSAT $ORB13302.D Orbital Elements 13302.MICROS
HR AMSAT ORBITAL ELEMENTS FOR THE MICROSATS FROM WA5QGD FORT WORTH,TX October 29, 2013 BID: ORB13302.D TO ALL RADIO AMATEURS BT
Satellite: UO-11 Catalog number: 14781 Epoch time: 13302.15436862 Element set: 323 Inclination: 097.8869 deg RA of node: 001.4401 deg Eccentricity: 0.0008551 Arg of perigee: 204.3191 deg Mean anomaly: 155.7619 deg Mean motion: 14.81063513 rev/day Decay rate: 1.419e-05 rev/day^2 Epoch rev: 59376 Checksum: 291
Satellite: AO-16 Catalog number: 20439 Epoch time: 13302.44336025 Element set: 873 Inclination: 098.4840 deg RA of node: 239.4222 deg Eccentricity: 0.0012036 Arg of perigee: 119.9633 deg Mean anomaly: 013.1657 deg Mean motion: 14.32220368 rev/day Decay rate: 2.85e-06 rev/day^2 Epoch rev: 24145 Checksum: 275
Satellite: LO-19 Catalog number: 20442 Epoch time: 13302.10007185 Element set: 810 Inclination: 098.4539 deg RA of node: 240.4497 deg Eccentricity: 0.0013071 Arg of perigee: 111.8238 deg Mean anomaly: 315.0063 deg Mean motion: 14.32428373 rev/day Decay rate: 2.92e-06 rev/day^2 Epoch rev: 24160 Checksum: 257
Satellite: AO-27 Catalog number: 22825 Epoch time: 13302.09708573 Element set: 513 Inclination: 098.6335 deg RA of node: 244.7897 deg Eccentricity: 0.0007406 Arg of perigee: 251.9959 deg Mean anomaly: 173.0459 deg Mean motion: 14.29603017 rev/day Decay rate: 2.52e-06 rev/day^2 Epoch rev: 4776 Checksum: 322
Satellite: IO-26 Catalog number: 22826 Epoch time: 13302.43585647 Element set: 268 Inclination: 098.6279 deg RA of node: 245.3855 deg Eccentricity: 0.0008015 Arg of perigee: 243.3675 deg Mean anomaly: 263.9250 deg Mean motion: 14.29891712 rev/day Decay rate: 2.89e-06 rev/day^2 Epoch rev: 4794 Checksum: 336
Satellite: GO-32 Catalog number: 25397 Epoch time: 13301.82325161 Element set: 193 Inclination: 098.4347 deg RA of node: 263.8902 deg Eccentricity: 0.0000313 Arg of perigee: 196.6516 deg Mean anomaly: 221.1903 deg Mean motion: 14.23368054 rev/day Decay rate: 7.7e-07 rev/day^2 Epoch rev: 79495 Checksum: 299
Satellite: NO-44 Catalog number: 26931 Epoch time: 13302.42087263 Element set: 454 Inclination: 067.0521 deg RA of node: 273.4582 deg Eccentricity: 0.0007132 Arg of perigee: 264.2888 deg Mean anomaly: 265.2369 deg Mean motion: 14.29974597 rev/day Decay rate: 3.16e-06 rev/day^2 Epoch rev: 63061 Checksum: 312
Satellite: SO-50 Catalog number: 27607 Epoch time: 13301.79864564 Element set: 208 Inclination: 064.5573 deg RA of node: 217.3293 deg Eccentricity: 0.0032856 Arg of perigee: 110.1628 deg Mean anomaly: 345.5863 deg Mean motion: 14.73140947 rev/day Decay rate: 7.29e-06 rev/day^2 Epoch rev: 58339 Checksum: 324
Satellite: CO-55 Catalog number: 27844 Epoch time: 13302.80426868 Element set: 775 Inclination: 098.7010 deg RA of node: 309.9274 deg Eccentricity: 0.0009288 Arg of perigee: 214.8396 deg Mean anomaly: 192.5897 deg Mean motion: 14.21294156 rev/day Decay rate: 4.06e-06 rev/day^2 Epoch rev: 53585 Checksum: 346
Satellite: CO-57 Catalog number: 27848 Epoch time: 13302.56462338 Element set: 717 Inclination: 098.7100 deg RA of node: 309.2759 deg Eccentricity: 0.0009072 Arg of perigee: 222.0383 deg Mean anomaly: 263.0306 deg Mean motion: 14.21010197 rev/day Decay rate: 3.50e-06 rev/day^2 Epoch rev: 53574 Checksum: 288
Satellite: AO-51 Catalog number: 28375 Epoch time: 13301.83050366 Element set: 689 Inclination: 098.2199 deg RA of node: 252.0413 deg Eccentricity: 0.0082574 Arg of perigee: 332.5865 deg Mean anomaly: 078.8678 deg Mean motion: 14.41186822 rev/day Decay rate: 3.15e-06 rev/day^2 Epoch rev: 49058 Checksum: 332
Satellite: CP3 Catalog number: 31129 Epoch time: 13302.48074991 Element set: 586 Inclination: 097.9101 deg RA of node: 287.6343 deg Eccentricity: 0.0099783 Arg of perigee: 010.2488 deg Mean anomaly: 107.3140 deg Mean motion: 14.53890755 rev/day Decay rate: 2.601e-05 rev/day^2 Epoch rev: 34650 Checksum: 306
Satellite: CO-65 Catalog number: 32785 Epoch time: 13302.13894287 Element set: 773 Inclination: 097.7347 deg RA of node: 355.7554 deg Eccentricity: 0.0013499 Arg of perigee: 223.1686 deg Mean anomaly: 162.8813 deg Mean motion: 14.84213280 rev/day Decay rate: 3.020e-05 rev/day^2 Epoch rev: 29774 Checksum: 334
Satellite: PRISM Catalog number: 33493 Epoch time: 13302.85322597 Element set: 314 Inclination: 098.2320 deg RA of node: 104.4287 deg Eccentricity: 0.0018969 Arg of perigee: 113.8244 deg Mean anomaly: 246.4957 deg Mean motion: 14.86775419 rev/day Decay rate: 4.818e-05 rev/day^2 Epoch rev: 25792 Checksum: 329
Satellite: SOHLA-1 Catalog number: 33496 Epoch time: 13302.82448492 Element set: 184 Inclination: 098.1491 deg RA of node: 058.6065 deg Eccentricity: 0.0005483 Arg of perigee: 247.7766 deg Mean anomaly: 269.6519 deg Mean motion: 14.70413386 rev/day Decay rate: 8.20e-06 rev/day^2 Epoch rev: 25565 Checksum: 328
Satellite: SO-67 Catalog number: 35870 Epoch time: 13302.83636751 Element set: 560 Inclination: 097.1825 deg RA of node: 326.8112 deg Eccentricity: 0.0001667 Arg of perigee: 134.5620 deg Mean anomaly: 345.3657 deg Mean motion: 15.28482095 rev/day Decay rate: 7.153e-05 rev/day^2 Epoch rev: 22881 Checksum: 314
Satellite: TISAT-1 Catalog number: 36799 Epoch time: 13302.87484920 Element set: 581 Inclination: 098.0291 deg RA of node: 028.3659 deg Eccentricity: 0.0014207 Arg of perigee: 356.3655 deg Mean anomaly: 003.7449 deg Mean motion: 14.83838509 rev/day Decay rate: 2.770e-05 rev/day^2 Epoch rev: 17854 Checksum: 335
Satellite: STUDSAT Catalog number: 36801 Epoch time: 13301.08972198 Element set: 703 Inclination: 098.0425 deg RA of node: 031.0599 deg Eccentricity: 0.0010527 Arg of perigee: 337.9496 deg Mean anomaly: 080.6568 deg Mean motion: 14.90006961 rev/day Decay rate: 1.2141e-04 rev/day^2 Epoch rev: 17849 Checksum: 305
Satellite: ALMASAT-1 Catalog number: 38078 Epoch time: 13302.83187523 Element set: 746 Inclination: 069.4760 deg RA of node: 247.0699 deg Eccentricity: 0.0669291 Arg of perigee: 333.6182 deg Mean anomaly: 023.2155 deg Mean motion: 14.31737165 rev/day Decay rate: 5.0331e-04 rev/day^2 Epoch rev: 8846 Checksum: 320
Satellite: XATCOBEO Catalog number: 38082 Epoch time: 13302.77424936 Element set: 626 Inclination: 069.4703 deg RA of node: 204.2743 deg Eccentricity: 0.0495831 Arg of perigee: 310.1288 deg Mean anomaly: 045.6905 deg Mean motion: 14.76407993 rev/day Decay rate: 1.13313e-03 rev/day^2 Epoch rev: 8963 Checksum: 313
Satellite: SOMP Catalog number: 39135 Epoch time: 13301.89258152 Element set: 358 Inclination: 064.8776 deg RA of node: 148.4435 deg Eccentricity: 0.0003111 Arg of perigee: 314.1596 deg Mean anomaly: 045.9266 deg Mean motion: 15.01205234 rev/day Decay rate: 4.639e-05 rev/day^2 Epoch rev: 2889 Checksum: 299
Satellite: CUBEBUG-1 Catalog number: 39153 Epoch time: 13302.85377714 Element set: 531 Inclination: 098.0643 deg RA of node: 018.5438 deg Eccentricity: 0.0018609 Arg of perigee: 015.5540 deg Mean anomaly: 344.6236 deg Mean motion: 14.76709111 rev/day Decay rate: 1.393e-05 rev/day^2 Epoch rev: 2755 Checksum: 294
Satellite: ESTCUBE-1 Catalog number: 39161 Epoch time: 13302.75117233 Element set: 501 Inclination: 098.1188 deg RA of node: 020.2452 deg Eccentricity: 0.0011128 Arg of perigee: 050.4476 deg Mean anomaly: 309.7713 deg Mean motion: 14.69195580 rev/day Decay rate: 1.325e-05 rev/day^2 Epoch rev: 2575 Checksum: 271
/EX SB KEPS @ AMSAT $ORB13302.W Orbital Elements 13302.WEATHER
HR AMSAT ORBITAL ELEMENTS FOR WEATHER SATELLITES FROM WA5QGD FORT WORTH,TX October 29, 2013 BID: ORB13302.W TO ALL RADIO AMATEURS BT
Satellite: NOAA-10 Catalog number: 16969 Epoch time: 13302.48465194 Element set: 547 Inclination: 098.5347 deg RA of node: 327.3304 deg Eccentricity: 0.0012049 Arg of perigee: 206.8832 deg Mean anomaly: 287.1925 deg Mean motion: 14.27674518 rev/day Decay rate: 1.98e-06 rev/day^2 Epoch rev: 41110 Checksum: 315
